Flight Track Log - Related Links

Times and Time Zones

All times are in EDT time to prevent confusion due to time zone crossing. See the DAL1117 flight status page for this flight to view local times or setup timezone preferences in your user account.

Time Position Orientation Groundspeed Altitude Reporting Facility
EDT Latitude Longitude Course Direction KTS MPH feet Rate Location/Type
Sun 10:51:40 PM 44.9000 -93.2667 286° West 174 200 2,500  Level Minneapolis TRACON
Sun 10:52:46 PM 44.9500 -93.3500 310° West 256 295 4,500 2,600 Climbing Minneapolis TRACON
Sun 10:53:40 PM 44.9667 -93.4500 283° West 278 320 7,700 3,000 Climbing Minneapolis TRACON
Sun 10:54:00 PM 44.9491 -93.8599 281° West  Level FlightAware Approximate
Sun 10:54:10 PM 44.9703 -93.4731 282° West 275 316 8,700  Level Minneapolis Center
Sun 10:55:00 PM 44.9721 -94.0210 281° West  Level FlightAware Approximate
Sun 10:55:12 PM 44.9881 -93.6094 280° West 303 349 11,200  Level Minneapolis Center
Sun 10:56:00 PM 44.9917 -94.1829 278° West  Level FlightAware Approximate
Sun 10:56:13 PM 45.0047 -93.7478 280° West 358 412 13,400  Level Minneapolis Center
Sun 10:57:00 PM 45.0154 -94.3435 286° West  Level FlightAware Approximate
Sun 10:57:14 PM 45.0228 -93.8922 280° West 372 428 15,700  Level Minneapolis Center
Sun 10:58:15 PM 45.0403 -94.0436 279° West 386 444 18,200 2,146 Climbing Minneapolis Center
Sun 10:59:17 PM 45.0597 -94.1997 280° West 400 460 20,100 1,951 Climbing Minneapolis Center
Sun 11:00:18 PM 45.0786 -94.3594 280° West 407 468 22,200 1,869 Climbing Minneapolis Center
Sun 11:01:19 PM 45.0964 -94.5242 279° West 417 480 23,900 1,659 Climbing Minneapolis Center
Sun 11:02:21 PM 45.1142 -94.7064 278° West 428 493 25,600 1,561 Climbing Minneapolis Center
Sun 11:03:22 PM 45.1308 -94.8786 278° West 438 504 27,100 1,328 Climbing Minneapolis Center
Sun 11:04:23 PM 45.1478 -95.0544 278° West 448 516 28,300 1,366 Climbing Minneapolis Center
Sun 11:05:25 PM 45.1642 -95.2319 278° West 452 520 29,900 1,610 Climbing Minneapolis Center
Sun 11:06:26 PM 45.1844 -95.4431 278° West 452 520 31,600 1,512 Climbing Minneapolis Center
Sun 11:07:28 PM 45.2011 -95.6156 278° West 448 516 33,000 1,171 Climbing Minneapolis Center
Sun 11:08:29 PM 45.2156 -95.7878 277° West 446 513 34,000 492 Climbing Minneapolis Center
Sun 11:09:30 PM 45.2314 -95.9589 278° West 443 510 34,000  Level Minneapolis Center
Sun 11:10:32 PM 45.2464 -96.1322 277° West 444 511 34,000  Level Minneapolis Center
Sun 11:11:33 PM 45.2617 -96.3061 277° West 444 511 34,000  Level Minneapolis Center
Sun 11:12:34 PM 45.2761 -96.4789 277° West 444 511 34,000  Level Minneapolis Center
Sun 11:13:36 PM 45.2897 -96.6494 277° West 442 509 34,000  Level Minneapolis Center
Sun 11:14:37 PM 45.3067 -96.8564 277° West 442 509 34,000  Level Minneapolis Center
Sun 11:15:38 PM 45.3208 -97.0281 277° West 442 509 34,000  Level Minneapolis Center
Sun 11:16:40 PM 45.3342 -97.2000 276° West 441 507 34,000 293 Level Minneapolis Center
Sun 11:17:41 PM 45.3469 -97.3714 276° West 441 507 34,600 836 Climbing Minneapolis Center
Sun 11:18:42 PM 45.3606 -97.5425 277° West 440 506 35,700 927 Climbing Minneapolis Center
Sun 11:19:44 PM 45.3719 -97.7114 276° West 436 502 36,500 780 Climbing Minneapolis Center
Sun 11:20:45 PM 45.3856 -97.8806 277° West 434 499 37,300 738 Climbing Minneapolis Center
Sun 11:21:46 PM 45.3986 -98.0717 276° West 422 486 38,000 341 Climbing Minneapolis Center
Sun 11:22:48 PM 45.4086 -98.2350 275° West 420 483 38,000  Level Minneapolis Center
Sun 11:23:49 PM 45.4219 -98.3992 277° West 420 483 38,000  Level Minneapolis Center
Sun 11:24:50 PM 45.4481 -98.5575 283° West 417 480 38,000  Level Minneapolis Center
Sun 11:25:51 PM 45.4744 -98.7167 283° West 417 480 38,000  Level Minneapolis Center
Sun 11:26:53 PM 45.4992 -98.8753 283° West 416 479 38,000  Level Minneapolis Center
Sun 11:27:54 PM 45.5247 -99.0361 283° West 416 479 38,000  Level Minneapolis Center
Sun 11:28:55 PM 45.5506 -99.1975 283° West 416 479 38,000  Level Minneapolis Center
Sun 11:29:56 PM 45.5800 -99.3922 282° West 417 480 38,000  Level Minneapolis Center
Sun 11:30:57 PM 45.6056 -99.5564 283° West 420 483 38,000  Level Minneapolis Center
Sun 11:31:58 PM 45.6311 -99.7200 283° West 422 486 38,000  Level Minneapolis Center
Sun 11:32:59 PM 45.6550 -99.8850 282° West 423 487 38,000  Level Minneapolis Center
Sun 11:34:01 PM 45.6789 -100.0486 282° West 424 488 38,000  Level Minneapolis Center
Sun 11:35:02 PM 45.7033 -100.2139 282° West 424 488 38,000  Level Minneapolis Center
Sun 11:36:03 PM 45.7272 -100.3781 282° West 424 488 38,000  Level Minneapolis Center
Sun 11:37:04 PM 45.7506 -100.5422 282° West 425 489 38,000  Level Minneapolis Center
Sun 11:38:05 PM 45.7731 -100.7031 281° West 420 483 38,000  Level Minneapolis Center
Sun 11:39:06 PM 45.7967 -100.8664 282° West 419 482 38,000  Level Minneapolis Center
Sun 11:40:07 PM 45.8233 -101.0617 281° West 419 482 38,000  Level Minneapolis Center
Sun 11:41:08 PM 45.8464 -101.2244 282° West 418 481 38,000  Level Minneapolis Center
Sun 11:42:09 PM 45.8678 -101.3903 281° West 419 482 38,000  Level Minneapolis Center
Sun 11:43:10 PM 45.8894 -101.5558 281° West 421 484 38,000  Level Minneapolis Center
Sun 11:44:11 PM 45.9122 -101.7231 281° West 422 486 38,000  Level Minneapolis Center
Sun 11:45:12 PM 45.9336 -101.8906 280° West 423 487 38,000  Level Minneapolis Center
Sun 11:46:13 PM 45.9564 -102.0569 281° West 424 488 38,000  Level Minneapolis Center
Sun 11:47:14 PM 45.9767 -102.2258 280° West 424 488 38,000  Level Minneapolis Center
Sun 11:48:15 PM 45.9975 -102.3942 280° West 427 491 38,000  Level Minneapolis Center
Sun 11:49:16 PM 45.9989 -102.5681 271° West 429 494 38,000  Level Minneapolis Center
Sun 11:50:17 PM 45.9967 -102.7653 269° West 431 496 38,000 -49 Level Minneapolis Center
Sun 11:51:18 PM 45.9961 -102.9400 270° West 433 498 37,900 -50 Descending Minneapolis Center
Sun 11:52:18 PM 45.9947 -103.1144 269° West 434 499 37,900  Level Minneapolis Center
Sun 11:53:19 PM 45.9925 -103.2892 269° West 434 499 37,900  Level Minneapolis Center
Sun 11:54:20 PM 45.9908 -103.4664 269° West 437 503 37,900 49 Level Minneapolis Center
Sun 11:55:21 PM 45.9883 -103.6417 269° West 437 503 38,000 49 Climbing Minneapolis Center
Sun 11:56:22 PM 45.9856 -103.8200 269° West 440 506 38,000 -148 Level Minneapolis Center
Sun 11:57:23 PM 45.9825 -103.9972 269° West 441 507 37,700 -645 Descending Minneapolis Center
Sun 11:58:23 PM 45.9797 -104.1747 269° West 441 507 36,700 -843 Descending Minneapolis Center
Sun 11:59:24 PM 45.9761 -104.3539 268° West 443 510 36,000 -300 Descending Minneapolis Center
Mon 12:00:43 AM 45.9667 -104.5953 267° West 445 512 36,000  Level Salt Lake Center
Mon 12:01:44 AM 45.9622 -104.7744 268° West 445 512 36,000  Level Salt Lake Center
Mon 12:02:45 AM 45.9575 -104.9519 268° West 445 512 36,000  Level Salt Lake Center
Mon 12:03:46 AM 45.9531 -105.1314 268° West 446 513 36,000  Level Salt Lake Center
Mon 12:04:48 AM 45.9478 -105.3103 268° West 448 516 36,000  Level Salt Lake Center
Mon 12:05:49 AM 45.9422 -105.4908 268° West 448 516 36,000  Level Salt Lake Center
Mon 12:06:50 AM 45.9350 -105.7053 267° West 450 518 36,000  Level Salt Lake Center
Mon 12:07:51 AM 45.9297 -105.8853 268° West 450 518 36,000  Level Salt Lake Center
Mon 12:08:52 AM 45.9231 -106.0653 267° West 451 519 36,000  Level Salt Lake Center
Mon 12:09:53 AM 45.9175 -106.2458 268° West 451 519 36,000 -146 Level Salt Lake Center
Mon 12:10:55 AM 45.9125 -106.4283 268° West 453 521 35,700 -634 Descending Salt Lake Center
Mon 12:11:56 AM 45.9067 -106.6094 267° West 454 522 34,700 -984 Descending Salt Lake Center
Mon 12:12:57 AM 45.8992 -106.7919 267° West 456 525 33,700 -1,180 Descending Salt Lake Center
Mon 12:13:58 AM 45.8925 -106.9767 267° West 458 527 32,300 -2,459 Descending Salt Lake Center
Mon 12:14:59 AM 45.8842 -107.1628 266° West 463 533 28,700 -3,415 Descending Salt Lake Center
Mon 12:16:01 AM 45.8742 -107.3453 266° West 466 536 25,300 -3,366 Descending Salt Lake Center
Mon 12:17:02 AM 45.8653 -107.5569 267° West 446 513 21,800 -3,000 Descending Salt Lake Center
Mon 12:18:03 AM 45.8586 -107.7200 267° West 430 495 19,200 -2,459 Descending Salt Lake Center
Mon 12:19:04 AM 45.8644 -107.8894 273° West 416 479 16,800 -2,311 Descending Salt Lake Center
Mon 12:20:05 AM 45.8694 -108.0494 273° West 394 453 14,500 -2,390 Descending Salt Lake Center
Mon 12:21:07 AM 45.8758 -108.2075 273° West 368 423 11,900 -1,756 Descending Salt Lake Center
Mon 12:22:08 AM 45.8833 -108.3339 275° West 325 374 10,900 -984 Descending Salt Lake Center
Mon 12:23:09 AM 45.8972 -108.4356 281° West 264 304 9,900 -1,131 Descending Salt Lake Center
Mon 12:24:10 AM 45.9167 -108.5275 287° West 225 259 8,600 -1,415 Descending Salt Lake Center
Mon 12:25:12 AM 45.9219 -108.6075 275° West 215 247 7,000 -1,171 Descending Salt Lake Center
Mon 12:26:13 AM 45.8742 -108.6589 217° Southwest 196 226 6,200 -1,131 Descending Salt Lake Center
Mon 12:27:14 AM 45.8333 -108.6342 157° South 161 185 4,700 -1,131 Descending Salt Lake Center
Mon 12:28:15 AM 45.8206 -108.5831 110° East 138 159 3,900 -787 Descending Salt Lake Center

Login

Don't have an account? Register now (free) for customized features, flight alerts, and more!